sat.trackr.live / text

‹ back to catalog

STARLINK-11475 [DTC]

NORAD 62226 · 2024-231J

PAYLOAD ACTIVE UNKNOWN

§ Identity

Operator
Country
US
Launch date
2024-12-05
Launch site
AFWTR
Launch vehicle
Mass (kg)
RCS (m²)

Purposes: comms

External: N2YO · Heavens-Above · Gunter

§ Orbital elements

Epoch: 2026-05-25T02:13:38.794368Z

Period
91.74 min
Inclination
53.1568°
Eccentricity
0.0001147
Mean motion
15.69712260 rev/d
Perigee alt
358.9 km
Apogee alt
360.5 km
Semi-major
6,737.9 km
B*
8.6093e-4
RAAN
84.4647°
Arg perigee
98.8929°
Mean anomaly
261.2219°
Rev number
8,541

§ Raw data

STARLINK-11475 [DTC]1 62226U 24231J   26145.09281012  .00105051  00000+0  86093-3 0  99912 62226  53.1568  84.4647 0001147  98.8929 261.2219 15.69712260 85419

JSON: /api/v1/satellites/62226 · /tle

For live sub-satellite position, see the globe view (requires WebGL).

§ Visibility from observer

Set your observer location to see the next 7 days of passes ≥ 10°. The values pass through the URL so the page stays shareable.

No JS? Fill the form by hand. The geolocation button needs JavaScript.